Weather in Batki

Russia / Ryazan Oblast     54°16′04″N   42°02′59″E
temp.,
°C
wind,
m/s
gust,
m/s
humid.,
%
clouds,
%
prec.,
mm/h
press.,
hPa
HPBL,
m
27 february, sat
sat2700:00+2w6149395 0.1 1001680
03:00+1w6139397 0.1 1001741
06:00+1w81497100 0.1 999733
09:00−1nw101497100 0.7 1000737
12:00−8nnw71188100 0.5 1003751
15:00−8nnw71189100 0.6 1006750
18:00−10nnw51091100 0.1 1009589
21:00−13nnw3796100 0.1 1012173
28 february, sun
sun2800:00−14nw379790 0.0 1012149
03:00−15nw349678 0.1 101481
06:00−16nw339650 0.0 101551
09:00−13nnw359456 0.0 1015239
12:00−10nw348994 0.1 1015432
15:00−8nnw348997 0.1 1016523
18:00−9nnw2294100 0.1 101629
21:00−11n2296100 0.1 101925
1 march, mon
mon100:00−13ene1197100 0.1 102020
03:00−14nnw119894 0.1 102220
06:00−15nnw229758 0.0 102320
09:00−12nw119457 0.0 102443
12:00−8w229084 0.0 1024277
15:00−5sw349090 0.0 1023349
18:00−6sw379591 0.0 1022163
21:00−3wsw4109495 0.1 1020492
2 march, tue
tue200:00−3sw61195100 0.2 1016459
03:00−1wsw71397100 1.0 1013656
06:00+1w71398100 0.9 1009650
09:00+1wnw71298100 1.4 1007667
12:000nw6129990 0.3 1007881
15:00+1nw6118890 0.4 1008896
18:000nw5129073 0.1 1008623
21:00−2nw6149186 0.1 1009628
3 march, wed
wed300:00−3nw6139197 0.2 1010580
03:00−3nw5129392 0.2 1011582
06:00−4nw5129496 0.1 1012493
09:00−4nw6129295 0.2 1013635
12:00−2nw7109094 0.1 1014889
15:00−2nw6108797 0.3 10151031
18:00−2nw51190100 0.1 1015555
21:00−5wnw499398 0.1 1016246